M-4S R/B

Satellite information

Favourite Embed

Satellite Type and Status

ROCKET BODYIN ORBIT

Key statistics

Satellite M-4S R/B at a glance.

Uptime

19863

Days in orbit

Revolutions

≈ 13.8

Per day

Orbit

LEO

Low Earth Orbit

Inclination

29.7

Latest

Satellite identification and parameters

Extended collection of information and parameters for M-4S R/B.

Object identification

Identified? True

Debris? False

Object name: M-4S R/B

International designator: 1971-011B

Object number (NORAD): 5126

Object ID (CCSDS): 5126

Country: JAPAN (JPN)

Current information (Y/N): Y

RCS size: MEDIUM

Orbital parameters

Period: 104.631 minutes

Inclination: 29.6798 deg

SMA: 7355.304 km

Apoapsis: 986.214 km

Periapsis: 968.124 km

RAAN: 200.3266 deg

Eccentricy: 0.0012297

Argument of periapsis: 10.2523 deg

Mean anomaly: 349.8303 deg

Mean motion: 13.7626421 rev/day

Mean motion (dot): 0.00000109 rev/day2

B* drag term: 0.000040774 1/REarth

Two-line elements (TLE)

Creation date: July 4, 2025, 6:39 p.m.

Reference frame: TEME

Reference center: EARTH

Epoch: July 4, 2025, 7:39 a.m. UTC

TLE line 0: 0 M-4S R/B

TLE line 1: 1 05126U 71011B 25185.31932450 .00000109 00000-0 40774-4 0 9998

TLE line 2: 2 05126 29.6798 200.3266 0012297 10.2523 349.8303 13.76264210735760

Live tracking on map

Real-time ground track for satellite M-4S R/B.

In-orbit conjunctions

A list of the most updated potential collisions computed for object M-4S R/B.

Target Orbit TCA Probability of collision Miss distance Type
COSMOS 1816 LEO 2025-06-18 21:47:51 0.0019282 445.0 (m) PAYLOAD
FENGYUN 1C DEB SSO 2024-07-12 18:18:16 0.0001002307 639.0 (m) DEBRIS
SL-16 DEB LEO 2024-07-06 15:31:50 0.0001214614 418.0 (m) DEBRIS

Associated space launch

Japanese technological test satellite designed by the Institute of Space and Aeronautical Science, University of Tokyo.

M-4S R/B was lifted into orbit during the mission ‘Mu-4S | Tansei-1’, on board a Mu-4S space rocket.

The launch took place on Feb. 16, 1971, 4 a.m. from Mu Center.

For more information about the launch, click the button.

Launch to space Mu-4S | Tansei-1
Mu-4S | Tansei-1

Agency: N/A

Status: Launch Successful

Launch date: Feb. 16, 1971, 4 a.m. UTC

Rocket: Mu-4S

Launch pad: Mu Center

Location: Uchinoura Space Center, Japan

...

Latest news about this satellite

There are no fresh news available about this satellite. Check back as we update our databases every day.


Newsletter sign-up

Weekly statistics, charts and insights to help you stay on top of the space industry.